Weather in Soshichno

Ukraine / Volyn Oblast     51°28′11″N   24°52′58″E
temp.,
°C
wind,
m/s
gust,
m/s
humid.,
%
clouds,
%
prec.,
mm/h
press.,
hPa
HPBL,
m
15 april, thu
thu1500:00+3wnw2296100 0.1 1015229
03:00+3w2395100 0.1 1015223
06:00+3w2396100 0.0 1016200
09:00+3w2294100 0.0 1016282
12:00+5w2289100 0.0 1016417
15:00+7w3379100 0.0 1016639
18:00+7w4579100 0.0 1015507
21:00+4w4992100 0.0 1015343
16 april, fri
fri1600:00+4wnw41096100 0.0 1014389
03:00+4wnw4997100 0.1 1013389
06:00+4wnw4797100 2.8 1012711
09:00+4w4797100 7.0 1012629
12:00+3w3697100 0.5 1012305
15:00+5sw239699 1.1 1013221
18:00+8sw2189100 0.1 1013380
21:00+5sw259899 0.9 1014116
17 april, sat
sat1700:00+6wsw2598100 3.9 1015238
03:00+5wsw3598100 4.6 1016233
06:00+4wsw2498100 0.1 1017199
09:00+5wsw2294100 0.1 1018226
12:00+6s2190100 0.0 1019403
15:00+6sse2389100 0.1 1020401
18:00+7se238399 0.0 1020601
21:00+6ssw249185 0.0 1021151
18 april, sun
sun1800:00+3wsw11965 0.0 102111
03:00+3w11965 0.0 102110
06:00+2w229513 0.0 102017
09:00+7w227822 0.0 1020267
12:00+10n226795 0.0 1020744
15:00+9nne2276100 0.0 1020276
18:00+9ne2285100 0.0 1020227
21:00+7e2493100 0.0 1020112
19 april, mon
mon1900:00+7e2792100 0.0 1021217
03:00+7ene2693100 0.0 1020217
06:00+7ene3796100 0.0 1020244
09:00+8ene51083100 0.1 1020614
12:00+12e575597 0.0 10191532
15:00+11ene4663100 0.1 10191220
18:00+11ene5867100 0.1 1018957
21:00+8ene51174100 0.1 1018782